カタログに戻る

COSMOS 1109 DEB

LostHEO
NORAD 48091·DEBRIS·🇷🇺 Russia

打ち上げ Jun 27, 1979 から Plesetsk Cosmodrome

Loading…

次のパス (今後24時間)

TLE

古いSource: Space-Track

元期: Aug 7, 2021, 02:17 UTC

1 48091U 79058Y   21219.09525550 -.00000247  00000-0  21677+0 0  9993
2 48091  67.3459 264.4670 6777052 331.3515   6.4211  2.06701328 47455

AllMySatでCOSMOS 1109 DEBをリアルタイム追跡

Download on the App Store